Houlton International, ME

8:05 PM EST on March 01, 2015 (GMT -0500)
Caribou Municipal | Change Station
CLOSE
Current Station
Airport
Location: Caribou,
Elevation: 623 ft
Nearby Weather Stations

Elev 623 ft 46.87 °N, 68.02 °W | Updated 11 minutes ago

Overcast
Overcast
23 °F
Feels Like 16 °F
N
6
Wind Variable Wind from SSE

Today
High -- | Low -- °F
--% Chance of Precip.
Yesterday
High -- | Low -- °F
Precip. -- in
6:10 AM 5:17 PM
Waxing Gibbous, 88% visible
Pressure 30.19 in
Visibility 10.0 miles
Clouds Overcast 10000 ft
Windchill 16 °F
Dew Point 5 °F
Humidity 46%
Rainfall 0.00 in
Snow Depth Not available.
UV 0 out of 12
Pollen .10 out of 12
Air Quality Not available.
Flu Activity Not available.
METAR KCAR 020054Z AUTO 16005KT 10SM OVC100 M05/M15 A3014 RMK AO2 SLP222 T10501150

More Conditions Fewer Conditions

Pressure 30.19 in
Visibility 10.0 miles
Clouds Overcast 10000 ft
Windchill 16 °F
Dew Point 5 °F
Humidity 46%
Rainfall 0.00 in
Snow Depth Not available.
UV 0 out of 12
Pollen .10 out of 12
Air Quality Not available.
Flu Activity Not available.
METAR KCAR 020054Z AUTO 16005KT 10SM OVC100 M05/M15 A3014 RMK AO2 SLP222 T10501150

More Conditions Fewer Conditions

10-Day Weather Forecast

Almanac

Astronomy

Mar. 01, 2015 Rise Set
Actual Time
Civil Twilight
Nautical Twilight
Astronomical Twilight
Moon
Length of Visible Light
Length of Day
Tomorrow will be .
, % of the Moon is Illuminated

Today's Extremes

State Highs State Lows

Community

WunderPhotos

Upload Photos

1,801,669 photos uploaded!

WunderBlogs® & News

Nearby

Air Quality

  Air Quality AQ Index Pollutant
Not available.

Snow Depth

Station Depth Elevation

Earthquake Activity

City Distance Mag. Time & Date
Minimum magnitude displayed is 2.5.

Coastal Water Temperatures

Place Temperature

Nearby Weather Stations